Starlink 11088

operational
NORAD ID: 59709 Int'l Des: 2024-088 Owner: SPXS Country: US Constellation: starlink
LEOCIRCULAR

Starlink 11088について

説明を読み込み中...

リアルタイム位置

3D地球を読み込み中...

次回通過

高度履歴

Altitude vs Time

uPlot chart will show altitude changes over time

軌道要素

1 59709U 24088B 25258.76184623 .00023092 00000-0 19449-3 0 9997
2 59709 53.1578 108.9136 0000581 99.0751 261.0332 15.69764491 78794
Epoch: Sep 15, 2025 • Age: 15 hours

現在のステータス

高度 360.5 km
速度 7.70 km/s
衛星直下点 26.19°N, 13.94°W
打ち上げ日 May 10, 2024
運用期間 1.3 years
タイプ internet

技術仕様

分類 Payload
質量 960.00 kg
乾燥質量 910.00 kg
総質量 960.00 kg
長さ 0.30 m
直径 4.10 m
スパン 29.00 m
形状 Box + pan
製造者 SPXS
バスタイプ Starlink V2MD
フェーズステータス In Orbit
所有者/国 SPXS/US

大規模コンステレーション

Loading constellations...